Precipitable_Water
1.51 1.51 1.52 1.50 1.49 1.47 1.45 1.43 1.38 1.34 1.30 1.28 1.26 1.20 1.16 1.11 1.05 1.01 0.95 0.88 0.82 0.77 0.74 0.73 0.67 0.55 0.47 0.39 0.34 0.54 0.49 0.50 0.45 0.45 0.41 0.38 0.31 0.31 0.29 0.31 0.31 0.28 0.24 0.26 0.30 0.26 0.25
1.63 1.63 1.61 1.59 1.57 1.57 1.53 1.49 1.47 1.45 1.40 1.38 1.35 1.27 1.21 1.17 1.12 1.05 0.95 0.88 0.85 0.83 0.80 0.76 0.68 0.56 0.45 0.29 0.45 0.48 0.45 0.40 0.42 0.43 0.40 0.38 0.35 0.39 0.31 0.29 0.28 0.29 0.29 0.31 0.29 0.28 0.28
1.53 1.60 1.58 1.56 1.54 1.51 1.48 1.44 1.42 1.40 1.36 1.34 1.31 1.25 1.20 1.14 1.09 1.03 0.97 0.92 0.87 0.85 0.80 0.77 0.71 0.58 0.42 0.35 0.47 0.47 0.46 0.41 0.39 0.43 0.41 0.41 0.39 0.32 0.30 0.28 0.35 0.30 0.24 0.25 0.24 0.25 0.27
1.41 1.43 1.45 1.43 1.45 1.45 1.41 1.37 1.34 1.33 1.29 1.29 1.22 1.17 1.12 1.08 1.02 0.97 0.93 0.88 0.83 0.80 0.76 0.73 0.69 0.63 0.42 0.51 0.52 0.47 0.46 0.42 0.40 0.39 0.34 0.37 0.44 0.34 0.30 0.33 0.31 0.25 0.24 0.19 0.25 0.28 0.35
1.32 1.35 1.35 1.34 1.32 1.33 1.33 1.31 1.29 1.27 1.23 1.19 1.14 1.10 1.04 0.98 0.95 0.91 0.86 0.83 0.79 0.78 0.76 0.73 0.68 0.71 0.49 0.58 0.47 0.63 0.60 0.52 0.48 0.42 0.37 0.44 0.41 0.34 0.36 0.27 0.23 0.26 0.20 0.25 0.28 0.33 0.34
1.28 1.26 1.26 1.26 1.25 1.25 1.27 1.26 1.25 1.22 1.18 1.14 1.11 1.04 1.00 0.96 0.89 0.83 0.80 0.73 0.74 0.76 0.72 0.79 0.68 0.53 0.54 0.43 0.54 0.60 0.65 0.60 0.53 0.49 0.42 0.38 0.35 0.30 0.28 0.27 0.19 0.21 0.24 0.28 0.28 0.34 0.34
1.22 1.22 1.24 1.23 1.21 1.22 1.21 1.21 1.19 1.18 1.16 1.16 1.13 1.08 1.02 0.92 0.86 0.79 0.73 0.75 0.69 0.71 0.69 0.55 0.54 0.49 0.50 0.54 0.56 0.46 0.60 0.54 0.54 0.46 0.34 0.43 0.33 0.26 0.27 0.29 0.28 0.28 0.26 0.25 0.29 0.30 0.27
1.18 1.18 1.17 1.20 1.20 1.19 1.18 1.17 1.16 1.15 1.15 1.14 1.13 1.10 1.05 0.98 0.93 0.87 0.77 0.66 0.65 0.72 0.46 0.54 0.51 0.45 0.45 0.42 0.40 0.42 0.56 0.45 0.43 0.37 0.40 0.35 0.32 0.35 0.35 0.30 0.30 0.32 0.29 0.24 0.25 0.29 0.29
1.11 1.12 1.13 1.13 1.13 1.13 1.14 1.12 1.11 1.09 1.06 1.08 1.09 1.06 1.00 0.89 0.80 0.70 0.65 0.67 0.76 0.68 0.46 0.45 0.46 0.41 0.38 0.38 0.36 0.35 0.37 0.45 0.38 0.37 0.39 0.32 0.31 0.38 0.35 0.32 0.29 0.32 0.27 0.27 0.25 0.28 0.31
1.07 1.07 1.08 1.08 1.08 1.10 1.11 1.09 1.06 1.03 1.02 1.01 0.99 0.93 0.91 0.83 0.67 0.73 0.66 0.73 0.72 0.65 0.37 0.35 0.39 0.40 0.41 0.40 0.34 0.37 0.31 0.34 0.37 0.35 0.35 0.33 0.36 0.30 0.32 0.30 0.30 0.25 0.28 0.26 0.27 0.26 0.21
0.95 0.98 1.02 1.00 1.01 1.02 1.04 1.06 1.02 0.99 0.96 0.91 0.92 0.94 0.84 0.72 0.78 0.61 0.86 0.81 0.70 0.62 0.27 0.38 0.37 0.52 0.51 0.38 0.46 0.39 0.37 0.33 0.31 0.34 0.34 0.30 0.31 0.30 0.28 0.29 0.33 0.28 0.32 0.32 0.31 0.27 0.23
0.90 0.90 0.96 0.95 0.97 0.96 0.99 1.00 0.98 0.94 0.92 0.91 0.89 0.88 0.83 0.75 0.65 0.81 0.82 0.74 0.62 0.39 0.27 0.36 0.45 0.39 0.42 0.40 0.39 0.55 0.46 0.39 0.33 0.28 0.30 0.31 0.32 0.33 0.32 0.33 0.33 0.35 0.32 0.29 0.27 0.26 0.19
0.75 0.81 0.87 0.91 0.93 0.91 0.95 0.94 0.94 0.91 0.90 0.90 0.89 0.85 0.78 0.77 0.64 0.79 0.71 0.57 0.35 0.29 0.34 0.30 0.35 0.38 0.37 0.37 0.35 0.41 0.36 0.31 0.28 0.23 0.23 0.25 0.25 0.33 0.36 0.30 0.34 0.31 0.25 0.18 0.18 0.20 0.19
0.68 0.67 0.73 0.83 0.85 0.81 0.88 0.90 0.87 0.90 0.88 0.86 0.87 0.86 0.76 0.70 0.72 0.73 0.64 0.41 0.27 0.29 0.32 0.29 0.31 0.37 0.37 0.40 0.40 0.42 0.37 0.32 0.34 0.32 0.29 0.26 0.25 0.31 0.32 0.26 0.25 0.30 0.31 0.25 0.19 0.19 0.21
0.66 0.66 0.68 0.72 0.77 0.76 0.78 0.85 0.88 0.85 0.88 0.86 0.83 0.78 0.75 0.74 0.73 0.66 0.49 0.32 0.27 0.29 0.27 0.25 0.28 0.26 0.32 0.34 0.36 0.41 0.39 0.35 0.36 0.34 0.27 0.24 0.26 0.35 0.33 0.35 0.31 0.25 0.23 0.27 0.25 0.27 0.23
0.61 0.67 0.66 0.65 0.69 0.74 0.76 0.76 0.80 0.83 0.86 0.88 0.71 0.63 0.63 0.78 0.71 0.58 0.40 0.30 0.30 0.31 0.27 0.28 0.21 0.27 0.28 0.29 0.34 0.36 0.40 0.41 0.37 0.44 0.44 0.31 0.26 0.35 0.37 0.38 0.34 0.32 0.33 0.24 0.25 0.22 0.19
0.55 0.58 0.65 0.64 0.62 0.68 0.75 0.79 0.77 0.81 0.84 0.84 0.68 0.50 0.60 0.79 0.65 0.41 0.28 0.29 0.29 0.32 0.32 0.29 0.27 0.23 0.21 0.22 0.24 0.23 0.22 0.35 0.40 0.42 0.43 0.37 0.32 0.30 0.36 0.37 0.31 0.28 0.28 0.29 0.28 0.25 0.19
0.47 0.52 0.57 0.58 0.62 0.64 0.70 0.76 0.79 0.80 0.83 0.77 0.58 0.38 0.67 0.71 0.36 0.33 0.24 0.27 0.31 0.33 0.35 0.32 0.31 0.28 0.26 0.25 0.25 0.24 0.24 0.34 0.42 0.42 0.34 0.34 0.30 0.25 0.27 0.35 0.33 0.30 0.29 0.32 0.27 0.25 0.31
0.45 0.42 0.50 0.55 0.55 0.58 0.64 0.70 0.77 0.77 0.80 0.69 0.49 0.47 0.66 0.59 0.29 0.25 0.23 0.25 0.29 0.28 0.31 0.29 0.30 0.30 0.27 0.27 0.24 0.28 0.28 0.38 0.37 0.37 0.36 0.38 0.26 0.20 0.18 0.20 0.22 0.22 0.23 0.24 0.25 0.25 0.21
0.47 0.46 0.46 0.49 0.52 0.52 0.60 0.69 0.72 0.78 0.79 0.71 0.50 0.37 0.48 0.51 0.42 0.32 0.25 0.23 0.24 0.29 0.30 0.32 0.31 0.30 0.27 0.25 0.25 0.24 0.24 0.29 0.35 0.33 0.36 0.36 0.25 0.20 0.18 0.20 0.22 0.19 0.22 0.25 0.25 0.25 0.25
0.44 0.48 0.48 0.50 0.49 0.51 0.58 0.72 0.74 0.75 0.82 0.68 0.50 0.41 0.44 0.31 0.30 0.30 0.31 0.26 0.23 0.21 0.27 0.30 0.27 0.26 0.26 0.24 0.25 0.22 0.23 0.22 0.31 0.31 0.29 0.26 0.18 0.18 0.19 0.18 0.19 0.20 0.21 0.21 0.23 0.25 0.24
0.41 0.45 0.49 0.50 0.51 0.52 0.53 0.67 0.72 0.76 0.77 0.61 0.44 0.42 0.44 0.34 0.35 0.32 0.29 0.24 0.21 0.23 0.23 0.25 0.22 0.23 0.25 0.22 0.23 0.21 0.22 0.22 0.21 0.27 0.30 0.32 0.21 0.22 0.18 0.21 0.22 0.20 0.17 0.16 0.16 0.17 0.18
0.39 0.43 0.45 0.50 0.51 0.53 0.57 0.62 0.71 0.70 0.75 0.54 0.55 0.59 0.49 0.37 0.37 0.32 0.26 0.25 0.27 0.27 0.27 0.26 0.28 0.26 0.23 0.24 0.33 0.33 0.37 0.38 0.35 0.31 0.33 0.34 0.32 0.24 0.17 0.21 0.24 0.21 0.15 0.18 0.19 0.20 0.20
0.40 0.41 0.45 0.46 0.51 0.53 0.60 0.64 0.68 0.70 0.69 0.58 0.57 0.56 0.43 0.31 0.35 0.27 0.31 0.32 0.30 0.30 0.27 0.33 0.29 0.27 0.35 0.39 0.37 0.36 0.33 0.31 0.32 0.32 0.33 0.28 0.25 0.22 0.16 0.23 0.17 0.18 0.20 0.19 0.20 0.19 0.19
0.41 0.40 0.41 0.47 0.49 0.52 0.58 0.60 0.63 0.65 0.66 0.60 0.60 0.52 0.44 0.33 0.36 0.36 0.34 0.32 0.32 0.33 0.29 0.30 0.30 0.37 0.40 0.34 0.26 0.22 0.22 0.21 0.18 0.19 0.21 0.24 0.20 0.17 0.17 0.16 0.18 0.16 0.16 0.21 0.19 0.18 0.20
0.40 0.38 0.37 0.42 0.48 0.50 0.54 0.56 0.59 0.61 0.63 0.60 0.58 0.60 0.49 0.36 0.36 0.40 0.40 0.35 0.30 0.27 0.27 0.29 0.38 0.48 0.38 0.31 0.24 0.15 0.13 0.16 0.15 0.16 0.20 0.22 0.23 0.19 0.17 0.14 0.12 0.12 0.20 0.27 0.30 0.17 0.28
0.38 0.38 0.37 0.38 0.43 0.47 0.48 0.51 0.53 0.55 0.57 0.58 0.55 0.62 0.49 0.37 0.38 0.43 0.39 0.37 0.38 0.33 0.28 0.31 0.37 0.38 0.37 0.29 0.22 0.19 0.15 0.18 0.14 0.14 0.15 0.19 0.23 0.22 0.20 0.20 0.22 0.22 0.28 0.32 0.21 0.19 0.36
0.39 0.37 0.37 0.37 0.37 0.43 0.45 0.47 0.49 0.51 0.53 0.55 0.51 0.59 0.49 0.38 0.40 0.42 0.40 0.38 0.39 0.38 0.28 0.32 0.33 0.35 0.32 0.25 0.23 0.21 0.19 0.20 0.19 0.20 0.18 0.17 0.18 0.20 0.25 0.23 0.18 0.35 0.33 0.28 0.36 0.43 0.42
0.39 0.39 0.37 0.38 0.35 0.39 0.42 0.44 0.45 0.46 0.51 0.52 0.40 0.52 0.57 0.44 0.41 0.50 0.50 0.51 0.51 0.44 0.34 0.35 0.29 0.30 0.31 0.27 0.25 0.24 0.23 0.26 0.25 0.20 0.30 0.23 0.24 0.20 0.23 0.22 0.36 0.39 0.39 0.40 0.45 0.41 0.42
Wind_Speed
44 44 43 42 41 40 38 37 36 34 33 32 32 31 31 31 30 29 29 28 28 27 26 26 26 25 22 20 22 19 19 19 18 17 17 17 17 17 17 16 16 17 19 19 16 19 19
46 45 44 43 41 40 38 37 35 34 34 33 32 32 32 31 30 30 29 29 28 28 27 26 25 24 22 23 19 19 19 17 16 16 16 15 15 15 16 17 18 18 17 20 20 20 20
35 40 42 42 39 38 37 35 34 34 33 33 32 31 31 30 30 30 30 30 29 28 27 26 25 24 24 24 20 21 19 17 16 15 15 15 16 16 14 17 16 18 20 21 22 22 22
36 36 34 33 36 37 36 35 34 33 32 33 32 31 30 30 30 30 30 29 28 27 26 26 25 25 24 23 23 23 21 20 19 18 17 17 16 18 18 18 18 19 20 21 20 22 15
35 34 33 33 31 33 35 35 34 34 34 33 33 32 31 31 31 30 29 28 27 27 27 26 25 24 25 22 22 19 19 18 17 18 18 17 16 17 16 17 18 18 18 19 18 15 15
39 38 38 35 35 34 35 36 37 37 36 35 34 34 33 32 31 31 30 29 29 30 28 26 27 25 26 23 20 20 19 18 17 16 16 17 16 17 17 19 20 20 18 19 16 15 18
44 42 41 40 38 38 37 36 37 38 38 38 37 36 34 33 32 31 31 29 28 26 28 26 24 25 22 22 23 22 21 19 20 18 19 18 19 20 22 23 24 24 23 25 24 23 24
43 44 43 44 42 40 39 37 37 36 36 37 37 37 36 35 33 33 31 30 28 28 31 31 33 34 31 28 25 25 23 23 23 24 23 23 25 24 25 25 22 23 25 26 27 27 27
43 43 44 43 43 42 41 40 37 37 36 35 34 34 33 33 32 32 31 30 29 29 31 34 35 34 32 32 29 29 28 26 27 27 27 29 25 16 21 24 23 24 26 27 29 27 28
47 47 45 45 45 42 41 39 37 36 36 35 35 33 32 30 30 29 30 28 28 27 28 31 28 29 29 28 31 33 30 30 28 32 30 30 29 31 28 27 27 29 27 27 25 25 27
47 47 47 46 44 44 43 42 40 37 35 35 35 33 32 31 28 27 26 26 25 24 24 19 22 23 24 27 24 26 30 29 32 31 26 28 24 26 29 30 28 30 24 24 26 28 29
46 47 47 48 47 46 45 44 42 39 37 35 34 33 31 30 32 31 27 25 24 23 28 23 22 24 24 27 26 22 23 27 28 32 32 33 31 27 27 26 26 25 23 27 27 26 28
47 46 46 45 46 45 46 44 42 40 39 37 34 33 33 31 28 28 26 24 23 27 23 22 24 25 26 24 26 23 23 24 23 22 29 31 31 29 27 25 23 23 23 22 22 23 26
47 48 48 47 48 46 45 45 43 40 39 38 36 35 33 32 31 29 26 25 29 27 33 19 21 23 27 26 26 25 24 25 28 26 22 23 25 28 25 28 25 25 23 21 23 25 27
49 48 48 49 48 48 48 46 45 43 40 39 36 36 36 34 31 30 29 30 29 32 21 21 32 27 26 27 24 26 28 26 27 27 26 22 24 19 26 23 24 25 26 26 26 28 28
49 49 49 48 48 49 48 48 47 45 42 39 37 35 35 34 32 31 31 38 34 31 24 26 26 23 23 23 23 21 23 21 23 21 21 25 23 19 20 22 25 24 23 23 21 19 25
48 49 49 49 48 48 48 48 46 45 43 40 37 35 36 33 32 32 35 34 37 32 28 24 27 26 25 24 24 24 26 15 18 20 21 22 24 25 22 20 23 23 23 24 23 24 26
47 47 49 49 49 49 49 47 47 45 43 42 38 38 35 33 31 34 38 34 33 33 30 27 26 26 27 25 26 26 25 16 19 19 21 18 22 24 27 25 25 21 25 25 22 21 19
41 45 47 48 48 48 50 49 47 46 45 40 37 35 36 37 34 35 36 35 35 33 33 30 29 29 29 28 25 25 27 18 22 21 19 19 20 23 28 28 30 29 26 28 28 28 30
39 39 42 45 47 46 47 49 49 46 47 42 35 32 33 36 35 34 35 36 34 35 30 28 27 25 26 28 29 25 25 21 23 22 21 22 26 28 26 27 25 25 25 26 27 26 26
36 37 38 40 42 44 42 46 48 47 44 42 38 34 33 30 34 34 31 30 34 32 35 28 28 29 25 25 26 29 30 29 23 24 25 25 30 29 30 31 30 30 30 31 31 29 29
34 34 35 36 39 39 43 41 40 46 48 43 38 34 34 30 32 33 33 33 34 32 30 31 30 28 27 28 27 26 28 28 29 28 26 26 26 26 30 30 29 31 33 34 33 32 33
33 33 33 33 34 37 37 41 42 43 42 38 41 39 32 31 29 31 34 35 33 31 28 32 29 26 27 27 22 25 24 24 25 24 22 25 21 24 27 27 28 26 32 30 29 29 28
29 31 32 31 33 34 35 34 37 40 43 36 36 36 34 30 30 32 29 31 31 30 30 27 25 25 27 24 24 25 28 28 28 28 27 27 27 25 27 25 27 28 28 28 29 30 30
25 27 29 30 31 35 36 35 35 36 38 37 33 29 30 28 31 29 29 28 27 25 23 24 24 22 23 22 22 23 25 28 32 33 34 32 30 29 27 28 29 33 29 23 26 32 31
24 25 27 29 28 32 36 36 36 36 37 34 33 30 26 22 24 28 26 27 25 25 23 23 20 19 20 21 22 25 26 25 24 27 29 29 30 27 26 28 28 32 26 25 21 30 23
25 25 26 28 28 30 36 37 36 36 35 35 30 30 26 25 24 25 26 26 27 26 23 19 18 18 18 19 21 23 26 26 28 27 24 20 24 26 26 26 28 30 29 28 26 23 17
26 26 26 29 30 29 32 36 37 36 35 35 33 34 30 25 25 24 27 26 22 26 20 18 17 18 18 18 19 21 22 24 26 27 26 26 23 23 22 23 26 21 22 21 19 19 20
26 26 25 28 32 31 31 33 35 36 36 36 33 33 31 31 25 23 23 25 25 21 21 21 17 17 16 16 17 17 19 18 20 22 21 25 27 27 27 26 21 20 23 25 23 22 21
Wind_Direction
248 247 246 246 247 247 248 249 249 250 252 255 258 261 264 266 269 271 273 275 277 279 282 285 288 290 288 278 279 277 280 279 278 275 277 280 278 277 271 276 271 267 267 272 269 274 271
247 244 245 245 245 245 245 246 248 249 252 255 258 261 263 265 267 270 272 273 276 277 280 282 284 286 279 276 277 278 279 276 274 273 275 273 275 282 277 272 272 279 277 274 273 271 269
244 238 242 241 241 241 243 244 247 249 252 255 257 260 262 264 266 269 271 272 275 276 277 278 279 279 274 269 275 277 273 270 272 272 275 275 276 274 278 276 278 274 277 274 269 266 269
245 236 234 237 236 239 241 243 247 247 252 254 256 259 261 263 266 268 270 271 272 273 275 274 276 275 270 273 272 272 269 266 264 265 269 276 276 274 269 271 275 271 272 274 277 253 261
236 238 236 235 238 238 242 243 244 249 253 255 256 258 261 264 265 266 268 269 270 271 272 272 272 269 271 269 269 265 262 262 262 263 265 271 272 267 268 265 271 258 269 273 271 252 259
242 244 239 241 241 242 243 245 249 251 253 255 256 258 260 262 263 264 266 268 269 270 268 267 267 270 265 263 261 261 259 258 259 259 261 265 265 266 261 259 264 270 271 271 275 251 262
243 243 242 244 244 245 247 249 250 252 254 255 255 256 258 260 261 263 265 266 268 265 259 258 265 263 268 262 265 258 252 252 256 255 259 255 260 261 260 260 270 273 271 272 273 275 276
244 244 246 247 246 246 245 248 251 252 254 255 254 254 256 258 260 260 262 260 267 267 267 259 260 261 261 265 262 253 249 253 251 255 257 263 261 264 268 269 273 272 272 272 273 273 272
246 246 248 247 247 248 248 248 252 252 253 253 252 253 255 255 257 257 255 260 264 267 264 264 258 258 255 254 257 255 248 253 256 256 258 261 263 265 268 268 263 265 268 272 273 276 276
248 247 248 249 249 247 246 246 249 252 253 252 251 251 253 253 255 254 255 257 262 264 266 265 256 258 250 254 260 252 253 250 255 256 260 264 263 263 264 263 265 268 271 276 276 276 276
250 248 247 248 246 246 247 246 250 252 251 250 248 248 249 247 254 251 256 258 257 258 266 260 251 254 251 246 260 256 248 253 253 253 254 257 261 260 262 264 262 268 273 274 274 275 279
250 249 249 249 246 247 246 247 249 249 248 248 247 248 247 247 248 253 256 255 251 254 257 252 255 254 249 248 254 257 252 251 258 253 256 257 261 264 261 264 261 267 271 273 270 270 270
250 249 249 247 246 249 244 246 247 246 246 246 247 248 246 250 250 248 247 244 246 250 261 252 255 248 249 251 250 249 247 247 248 248 252 255 252 255 258 258 256 260 266 274 269 263 268
251 250 249 248 247 247 247 245 245 243 245 245 245 246 247 247 249 245 241 240 245 254 251 265 257 248 249 248 248 247 248 250 246 251 265 248 249 244 246 251 254 254 259 262 273 275 281
250 250 250 249 249 248 246 245 244 246 246 244 244 246 246 245 244 241 239 241 248 248 257 265 250 257 253 251 251 246 248 251 248 245 250 257 259 240 244 253 254 261 261 269 276 276 277
250 250 249 249 248 247 246 245 244 244 241 242 242 245 247 243 241 238 242 247 248 253 260 260 257 249 251 246 247 250 251 261 255 248 258 258 262 243 245 256 261 264 270 272 270 272 274
250 250 248 247 247 246 245 243 242 241 240 238 244 249 247 237 237 238 243 248 244 250 260 256 256 259 255 257 259 261 258 249 255 253 255 263 259 254 250 251 260 262 260 263 271 270 272
250 249 247 247 245 244 242 241 239 237 236 235 242 245 240 232 240 243 247 249 251 253 257 253 258 258 261 259 262 261 263 252 261 254 255 261 262 261 261 260 262 266 269 268 262 266 269
252 250 247 245 245 243 241 238 236 234 231 232 239 242 234 232 239 242 245 251 249 250 246 250 252 251 254 256 257 251 248 249 251 249 250 264 253 262 266 264 262 262 263 262 264 264 268
252 251 247 244 242 241 240 235 232 229 226 229 233 234 233 231 239 239 240 244 247 243 246 246 250 249 249 246 245 247 249 244 243 248 252 258 258 259 263 267 274 271 272 266 263 266 272
251 249 247 243 241 238 236 232 228 226 220 223 226 230 227 230 236 238 239 240 238 240 239 241 246 245 243 243 242 245 248 252 245 248 253 255 258 261 264 266 267 268 269 269 267 269 265
250 248 246 243 238 235 231 228 224 222 221 225 222 225 223 232 231 232 237 239 238 237 235 235 240 243 241 245 247 248 250 247 246 247 247 249 259 261 265 268 270 271 268 269 271 271 273
248 245 244 241 236 231 227 225 222 219 215 219 221 222 219 228 229 231 236 237 238 235 235 238 238 243 241 245 251 252 254 251 253 254 253 255 258 266 267 270 271 269 266 269 271 271 274
247 243 240 238 232 226 220 217 215 213 213 214 216 218 221 228 231 233 230 228 232 235 239 236 243 239 245 248 251 253 253 252 252 252 255 258 261 263 267 268 264 265 269 273 275 275 275
247 241 237 233 228 222 216 215 214 210 211 212 214 216 223 232 226 223 228 222 225 230 233 241 240 241 243 246 251 254 252 256 256 257 255 255 260 262 260 261 267 274 270 275 277 276 276
245 240 233 227 224 219 214 213 212 211 210 213 216 216 217 219 220 217 219 220 225 229 233 238 236 237 240 246 250 250 251 254 255 252 249 250 249 251 255 258 263 268 277 275 280 275 284
241 238 231 224 222 218 215 214 213 212 213 212 214 212 217 221 227 220 227 225 234 230 233 233 224 231 238 241 247 251 255 255 255 259 261 255 247 247 253 258 264 271 277 275 269 278 282
238 234 230 223 220 218 215 214 215 216 215 215 217 219 221 226 226 227 230 227 235 228 222 221 220 238 240 246 252 251 257 256 257 257 257 256 252 249 254 256 264 272 277 269 271 273 275
233 229 227 223 220 218 216 215 214 216 216 217 221 223 222 223 225 230 230 229 228 229 220 218 232 229 236 243 251 255 255 259 262 262 261 257 255 260 255 260 264 268 268 270 270 272 274